Retour au catalogue

STARLINK-32515

ActifCommunicationsVLEO
NORAD 61705·PAYLOAD·🇺🇸 United States

Lancé Oct 30, 2024 depuis Vandenberg Space Force Base

Loading…

Prochains Passages (prochaines 24 heures)

TLE

FraisSource: CelesTrak SupGP

Époque: Sep 14, 2026, 14:27 UTC

1 61705C 24195U   26257.60256944 -.00042214  00000+0 -12476-2 0  2571
2 61705  53.1587 356.9525 0001189  83.2955  73.1055 15.34401480    18

Suivez STARLINK-32515 en temps réel avec AllMySat

Download on the App Store